Puerto Plata, Dominican Republic

3:48 AM AST on June 23, 2017 (GMT -0400)
Gregorio Luperon International

Weather History for MDPP - November, 2012

Change the Weather History Date:

Sunday, November 25, 2012

  Actual Average Record
Temperature  
Mean Temperature 78 °F -  
Max Temperature 86 °F 82 °F 87 °F (1997)
Min Temperature 71 °F 69 °F 68 °F (2003)
Cooling Degree Days 14    
Growing Degree Days 28 (Base 50)    
Moisture  
Dew Point 73 °F    
Average Humidity 82    
Maximum Humidity 100    
Minimum Humidity 63    
Precipitation  
Precipitation 0.00 in - - ()
Sea Level Pressure  
Sea Level Pressure 30.00 in    
Wind  
Wind Speed 3 mph ()    
Max Wind Speed 14 mph    
Max Gust Speed -    
Visibility 7.4 miles    
Events Rain    
Averages and records for this station are not official NWS values.
T = Trace of Precipitation, MM = Missing Value Source: Averaged Metar Reports

Daily Weather History Graph

Daily Weather History Graph

Search for Another Location

Airport or City:

Trip Planner

Search our weather history database for the weather conditions in past years. The results will help you decide how hot, cold, wet, or windy it might be!

Date:

Astronomy

Nov. 25, 2012 Rise Set
Actual Time 6:56 AM AST 6:01 PM AST
Civil Twilight 6:33 AM AST 6:25 PM AST
Nautical Twilight 6:06 AM AST 6:52 PM AST
Astronomical Twilight 5:39 AM AST 7:18 PM AST
Moon 4:04 PM AST (11/25) 4:23 AM AST (11/25)
Length of Visible Light 11h 51m
Length of Day
11h 04m
Waxing Gibbous, 92% of the Moon is Illuminated
Nov 25
Waxing Gibbous
Nov 28
Full
Dec 6
Last Quarter
Dec 13
New
Dec 20
First Quarter

Hourly Weather History & Observations

Time (AST) Temp. Heat Index Dew Point Humidity Pressure Visibility Wind Dir Wind Speed Gust Speed Precip Events Conditions
2:00 AM 73 °F - 72 °F 96% 29.98 in 10 mi Calm Calm - -   Scattered Clouds
2:00 AM 73.4 °F - 71.6 °F 94% 29.98 in 6.2 mi Calm Calm - N/A   Mostly Cloudy
5:00 AM 72 °F - 71 °F 97% 29.95 in 10 mi Calm Calm - -   Scattered Clouds
5:00 AM 71.6 °F - 71.6 °F 100% 29.95 in 6.2 mi Calm Calm - N/A   Mostly Cloudy
8:00 AM 74 °F - 71 °F 87% 30.04 in 10 mi Calm Calm - -   Scattered Clouds
8:00 AM 75.2 °F - 71.6 °F 89% 30.04 in 6.2 mi Calm Calm - N/A   Mostly Cloudy
9:00 AM 77.0 °F - 73.4 °F 89% 30.01 in 6.2 mi Calm Calm - N/A   Mostly Cloudy
11:00 AM 84 °F - 74 °F 66% 30.04 in 10 mi NE 4.5 mph - -   Partly Cloudy
11:00 AM 84.2 °F 92.3 °F 75.2 °F 74% 30.04 in 6.2 mi NE 4.6 mph - N/A   Scattered Clouds
12:00 PM 84.2 °F 90.9 °F 73.4 °F 70% 30.04 in 6.2 mi ENE 8.1 mph - N/A   Scattered Clouds
1:00 PM 82.4 °F 88.2 °F 73.4 °F 74% 30.01 in 6.2 mi ENE 8.1 mph - N/A   Scattered Clouds
2:00 PM 86 °F - 75 °F 63% 29.98 in 10 mi ENE 13.4 mph - -   Partly Cloudy
2:00 PM 86.0 °F 95.1 °F 75.2 °F 70% 29.98 in 6.2 mi ENE 13.8 mph - N/A   Scattered Clouds
3:00 PM 82.4 °F 89.5 °F 75.2 °F 79% 29.95 in 6.2 mi ENE 11.5 mph - N/A   Mostly Cloudy
4:00 PM 82.4 °F 87.2 °F 71.6 °F 70% 29.95 in 6.2 mi ENE 11.5 mph - N/A   Scattered Clouds
5:00 PM 81 °F - 73 °F 72% 29.98 in 10 mi East 8.9 mph - -   Partly Cloudy
5:00 PM 80.6 °F 85.4 °F 73.4 °F 79% 29.98 in 6.2 mi East 9.2 mph - N/A   Mostly Cloudy
6:00 PM 78.8 °F - 75.2 °F 89% 29.98 in 6.2 mi East 8.1 mph - N/A   Mostly Cloudy
7:00 PM 78.8 °F - 73.4 °F 83% 29.98 in 6.2 mi Variable 3.5 mph - N/A   Mostly Cloudy
8:00 PM 77.0 °F - 75.2 °F 94% 30.04 in - Calm Calm - N/A Rain Light Rain